This is the latest recevied weather packets stored in our database for station/object K2RMB. If no packets are shown the sender has not sent any weather packets the latest 10 day(s).
| Time | Temp. | Humidity | Pressure | Rain* | Wind** | Luminosity | Snow |
|---|---|---|---|---|---|---|---|
| 1777772616 | 3.89° C | 62% | 1012.9 hPa | 0 mm | - | 0 W/m² | - |
| 1777772314 | 3.89° C | 65% | 1013.3 hPa | 0 mm | - | 0 W/m² | - |
| 1777772011 | 3.89° C | 65% | 1013.3 hPa | 0 mm | - | 0 W/m² | - |
| 1777771708 | 3.89° C | 64% | 1013.3 hPa | 0 mm | - | 0 W/m² | - |
| 1777771406 | 4.44° C | 65% | 1013.3 hPa | 0 mm | - | 0 W/m² | - |
| 1777771102 | 4.44° C | 63% | 1013.3 hPa | 0 mm | - | 0 W/m² | - |
| 1777770799 | 4.44° C | 61% | 1013.6 hPa | 0 mm | - | 0 W/m² | - |
| 1777770495 | 5° C | 62% | 1013.3 hPa | 0 mm | - | 0 W/m² | - |
| 1777770193 | 5° C | 58% | 1013.3 hPa | 0 mm | - | 0 W/m² | - |
| 1777769889 | 5.56° C | 57% | 1013.3 hPa | 0 mm | - | 0 W/m² | - |
| 1777769587 | 6.11° C | 54% | 1013.3 hPa | 0 mm | - | 0 W/m² | - |
| 1777769283 | 5.56° C | 55% | 1012.9 hPa | 0 mm | - | 0 W/m² | - |
| 1777768981 | 5.56° C | 53% | 1012.9 hPa | 0 mm | - | 0 W/m² | - |
| 1777768678 | 5.56° C | 56% | 1012.9 hPa | 0 mm | - | 0 W/m² | - |
| 1777768375 | 5.56° C | 57% | 1012.9 hPa | 0 mm | - | 0 W/m² | - |
| 1777768071 | 6.11° C | 59% | 1012.9 hPa | 0 mm | - | 0 W/m² | - |
| 1777767768 | 6.67° C | 57% | 1012.9 hPa | 0 mm | - | 0 W/m² | - |
| 1777767464 | 6.67° C | 50% | 1012.9 hPa | 0 mm | - | 0 W/m² | - |
| 1777767161 | 6.67° C | 50% | 1012.9 hPa | 0 mm | - | 0 W/m² | - |
| 1777766859 | 7.22° C | 49% | 1012.5 hPa | 0 mm | - | 1 W/m² | - |
| 1777766556 | 7.22° C | 46% | 1012.9 hPa | 0 mm | - | 2 W/m² | - |
| 1777766253 | 7.22° C | 47% | 1012.9 hPa | 0 mm | - | 3 W/m² | - |
| 1777765951 | 7.22° C | 48% | 1012.9 hPa | 0 mm | - | 4 W/m² | - |
| 1777765647 | 7.22° C | 47% | 1012.9 hPa | 0 mm | - | 7 W/m² | - |
| 1777765344 | 7.78° C | 47% | 1012.5 hPa | 0 mm | - | 10 W/m² | - |
* Rain latest hour (hover to see other rain measurements)
** Current wind speed in m/s (hover to see current wind gust speed)